Погода в Киши

Нигерия     9°05′09″N   3°51′31″E
темп.,
°C
ветер,
м/с
пор.,
м/с
влажн.,
%
обл.,
%
осадки,
мм/ч
давл.,
гПа
погр.,
м
6 мая, чт
чт601:00+24ююз51281100 0.2 1011586
04:00+23юз51381100 0.0 1009505
07:00+23ююз398365 0.0 1012486
10:00+30юз455444 0.0 1012910
13:00+35ююз323611 0.0 10092023
16:00+35ююз323184 0.0 10062299
19:00+26ссз3567100 1.3 1009164
22:00+25ю51282100 5.0 1012434
7 мая, пт
пт701:00+24юз51283100 5.0 1012549
04:00+23ююз3108582 0.0 1011573
07:00+23ююз5138479 0.0 1012645
10:00+27ююз586796 0.0 1014933
13:00+33зюз5545100 0.0 10121617
16:00+32ююз2447100 0.0 10091677
19:00+29ююз5105457 0.0 1009531
22:00+27юв2662100 0.1 1012280
8 мая, сб
сб801:00+25ююз2683100 1.8 1013437
04:00+23сз3790100 11.9 1014243
07:00+22зюз5987100 18.9 1012201
10:00+27юз5960100 0.0 1013469
13:00+34юз3337100 0.0 10111384
16:00+35ю223431 0.0 10092333
19:00+30ю4954100 0.0 1010491
22:00+26ю51279100 0.0 1013518
9 мая, вс
вс901:00+24ю4987100 3.9 1014580
04:00+23ююз51289100 2.8 1012535
07:00+21в61194100 11.7 1016575
10:00+20ююз61392100 12.8 1016460
13:00+25юз2468100 12.8 101185
16:00+26всв4672100 0.0 1010445
19:00+24всв118089 0.0 101114
22:00+22ююв268533 0.0 1014166
10 мая, пн
пн1001:00+22ююв2790100 0.0 1013202
04:00+22ю1391100 0.0 1012135
07:00+23зюз2390100 0.0 1013122
10:00+28ююз3462100 0.0 1013599
13:00+33ю3443100 0.0 10111460
16:00+34ююв343912 0.0 10082272
19:00+29ю2356100 0.0 100950
22:00+26ю397497 0.0 1012466